Vertical_Velocity
-2 -2 -2 -2 -2 -1 -1 -2 -1 -1 -2 -2 -1 -1 -2 -4 -2 -2 -0 3 4 2 0 1 0 0 -1 -3 -1 -1 -0 -2 -1 -2 -0 -0 -2 -2 -2 -1 1 2 1 0
1 0 0 0 -0 -1 -1 -0 -1 -0 -2 0 0 0 -2 -2 -0 -4 -1 -0 -1 -0 -0 1 -1 -2 -2 -3 -3 -3 -3 -1 0 -0 -2 -2 -3 -3 -2 -3 -3 -3 -1 0
-1 -1 -0 0 -0 -0 1 1 0 -1 -1 -0 -0 -1 -0 -1 -2 -3 1 -0 -0 -3 -2 -2 -2 -2 -2 -0 -3 -2 -2 -3 -2 -1 -1 -2 -2 -1 -1 -2 -1 -0 0 1
-1 -0 1 2 0 0 -0 -2 1 0 2 1 -1 -0 0 -0 -3 -1 0 0 -0 -1 -1 -2 -2 -1 1 -1 -2 -0 -0 0 -0 -1 -1 -1 -2 -1 -1 -2 -1 -1 -1 -0
2 1 1 1 2 2 2 2 1 1 2 3 3 -1 -1 2 -2 -1 -0 -3 -3 -1 1 -1 -3 -3 -1 -0 -1 -0 -0 -0 -0 -0 -0 0 1 0 -1 -1 -1 -2 -2 -3
1 -1 0 -0 0 1 2 -1 0 0 1 1 1 0 -3 1 3 2 1 2 -1 -1 0 -0 -1 -0 1 2 2 3 3 2 1 2 3 2 1 1 2 2 2 3 3 4
-0 -0 -0 0 -1 -1 -0 0 -0 -0 -1 -1 -1 -5 -3 1 -0 0 -1 -1 0 -0 -1 -2 -2 -0 1 2 2 2 0 1 2 2 1 2 2 1 1 0 -2 -3 -3 -3
4 1 1 0 1 1 -1 -1 -1 -2 -2 -2 -3 -2 -2 -2 -3 -2 -2 -1 -2 -2 -2 -2 -1 0 -1 -1 1 -1 -2 -0 -1 -0 -0 -0 -1 -1 -2 -2 -2 -2 -2 -2
-2 1 -2 -1 -4 -3 -2 -1 -1 -1 -1 -1 -2 -3 0 -2 -2 -4 -4 -2 -1 -1 -1 -4 -1 0 -0 -5 4 -1 -2 2 1 0 -0 -1 -2 -2 -2 -1 -1 -1 -1 -1
-8 4 -7 -4 3 4 2 1 0 1 2 1 -0 -0 -3 -2 -3 -1 -0 -1 -1 1 0 0 -6 4 -0 -1 -1 -1 -2 1 1 -2 -2 -0 -1 -0 -0 1 -2 -1 0 1
-0 7 -0 -12 1 0 -2 1 -2 -4 -1 -1 2 -2 1 1 1 1 2 -0 1 -0 -1 1 -1 -1 -0 0 3 2 1 -3 -2 -1 -2 -3 0 1 -1 -1 -2 -3 1 0
-2 -12 -8 11 -7 -3 3 -1 -1 1 4 4 2 1 -1 3 -1 -1 0 1 2 -0 3 -0 -0 1 -4 0 1 1 2 -0 1 3 -1 -0 -0 -1 -2 -2 -1 -0 1 1
10 -0 -3 -5 -3 -2 0 1 -2 4 3 4 -3 2 2 4 -3 1 2 3 2 1 -1 3 3 3 -5 -1 -2 -3 -2 -3 -2 0 -0 1 0 -0 -2 -2 -3 -3 2 -0
6 1 12 -13 9 -5 -3 -5 -4 -4 -1 1 2 1 -0 1 2 2 -0 -0 1 1 1 0 1 1 6 4 3 2 2 -0 1 -1 -0 -0 0 1 3 2 -1 0 -0 -0
-4 -4 5 2 2 2 -2 2 1 3 -2 0 -2 0 0 2 0 -0 1 0 0 -0 2 3 2 -1 -2 1 2 0 1 -0 3 1 -0 3 0 2 3 2 3 0 -3 0
-1 -2 -3 7 1 1 -3 -3 1 1 -1 1 1 1 1 1 1 1 2 1 -0 2 3 -4 -3 -3 4 3 2 1 0 -1 -1 -0 -2 -2 2 1 -0 2 1 1 1 -4
-0 10 -6 3 -3 1 3 -0 3 3 3 1 0 5 3 2 1 2 2 2 -0 -0 0 0 -2 -0 -0 -0 0 -0 1 2 3 2 2 2 -0 0 1 1 3 2 3 -1
3 -2 -1 3 1 3 -1 2 2 0 1 2 3 0 0 3 1 1 1 3 2 2 3 2 -1 -2 -1 -1 -1 0 1 1 1 -1 1 2 1 -0 1 2 -0 2 1 -1
-2 2 -4 -1 3 1 3 1 2 5 1 -2 -1 0 1 2 -0 -2 -3 1 3 1 5 3 3 2 -0 1 1 1 1 -0 -0 -1 -0 2 1 0 0 -1 1 1 0 1
-2 -1 2 -3 -7 -3 -1 1 3 3 2 0 -0 -0 -1 1 -0 1 2 -1 0 -2 -1 1 -1 2 5 4 3 1 0 0 -0 -1 -4 -0 3 2 2 2 1 -1 -2 0
2 2 0 1 0 -1 -0 -1 -3 0 3 3 3 -1 -3 -1 1 -2 -1 -2 2 1 -0 1 -1 0 1 1 -1 -0 -0 2 2 1 -1 -4 -1 -0 1 1 1 -0 1 -0
3 3 3 2 4 4 0 -1 1 4 2 1 0 -0 -2 -1 -1 1 -0 1 -1 -2 -1 1 -0 1 -1 -2 -3 -0 -0 -1 1 2 0 1 -0 2 1 2 1 -0 0 0
4 3 0 1 3 3 4 3 3 2 2 2 3 2 1 0 -1 2 4 -9 3 2 0 -3 -4 -1 -1 -0 -2 -2 -1 -1 1 1 2 1 1 1 1 -1 0 5 1 -1
1 4 3 -0 2 2 1 -3 1 2 1 -4 -3 -3 1 2 4 -1 -5 4 2 -4 1 -1 -1 -2 -1 -2 -2 -1 0 -2 -1 1 -1 1 2 1 2 2 3 -1 3 1
-3 2 5 -1 -2 -1 -1 1 -3 1 1 6 6 2 -3 -5 -11 12 -4 -5 -3 -1 2 -2 -3 -1 0 -0 -2 -2 -1 1 -1 3 0 1 4 2 2 2 2 5 1 -1
4 1 1 -0 0 2 -0 -0 -0 7 2 -3 0 -0 -0 -3 -4 -4 -2 1 2 -1 -3 -0 0 0 0 -1 -1 -0 -1 -0 1 5 3 -0 4 4 4 1 3 2 -1 -0
3 4 8 0 5 -2 -2 -2 -2 -1 -7 -6 -2 2 0 2 -4 -5 -2 2 1 2 4 -1 -2 -2 1 -0 -0 -2 -2 -0 3 2 2 2 3 2 2 2 1 -1 1 0
Height
5712 5711 5710 5710 5710 5709 5709 5709 5708 5709 5709 5709 5711 5712 5713 5713 5712 5711 5712 5713 5715 5716 5716 5715 5714 5713 5712 5710 5708 5705 5702 5698 5694 5690 5685 5681 5677 5671 5666 5661 5657 5652 5648 5645
5712 5711 5710 5710 5710 5710 5709 5709 5708 5708 5708 5708 5709 5709 5710 5709 5708 5709 5711 5713 5713 5714 5714 5713 5713 5712 5711 5709 5707 5704 5701 5697 5694 5690 5686 5682 5677 5672 5667 5663 5658 5653 5649 5646
5712 5712 5712 5712 5711 5710 5709 5708 5708 5706 5707 5705 5705 5705 5705 5705 5706 5708 5710 5711 5712 5712 5712 5712 5711 5711 5710 5708 5706 5703 5699 5696 5693 5689 5685 5681 5676 5672 5667 5663 5658 5654 5650 5646
5712 5712 5712 5711 5710 5709 5708 5706 5705 5704 5702 5701 5702 5702 5702 5702 5704 5707 5709 5709 5710 5710 5710 5709 5709 5708 5708 5706 5703 5700 5697 5694 5691 5687 5683 5679 5674 5670 5665 5661 5657 5652 5649 5645
5711 5710 5710 5708 5707 5706 5704 5703 5700 5698 5696 5696 5698 5700 5699 5701 5704 5706 5708 5709 5708 5708 5708 5707 5707 5706 5705 5703 5700 5697 5694 5691 5688 5684 5679 5675 5670 5666 5661 5657 5653 5649 5645 5642
5709 5707 5707 5706 5705 5703 5701 5700 5697 5695 5693 5691 5693 5695 5698 5701 5704 5705 5706 5706 5706 5706 5705 5705 5704 5703 5701 5699 5696 5694 5691 5688 5684 5679 5675 5670 5666 5662 5657 5653 5649 5645 5642 5638
5709 5707 5707 5705 5704 5702 5701 5702 5697 5695 5693 5692 5692 5694 5697 5700 5701 5702 5703 5703 5703 5702 5702 5701 5699 5698 5696 5694 5692 5689 5687 5683 5679 5675 5670 5665 5661 5657 5654 5650 5646 5642 5638 5634
5707 5705 5705 5702 5701 5700 5699 5697 5696 5695 5694 5693 5694 5695 5696 5697 5698 5698 5698 5698 5698 5697 5696 5695 5694 5692 5690 5688 5685 5682 5679 5676 5672 5668 5664 5660 5656 5651 5647 5644 5640 5635 5631 5627
5705 5702 5699 5698 5697 5696 5696 5694 5694 5693 5693 5693 5693 5693 5693 5693 5693 5693 5693 5693 5692 5692 5690 5688 5688 5686 5683 5680 5677 5674 5671 5668 5664 5661 5657 5652 5648 5644 5640 5637 5632 5628 5624 5621
5697 5693 5690 5691 5692 5693 5692 5692 5691 5690 5689 5689 5689 5689 5688 5688 5687 5687 5686 5686 5686 5685 5683 5681 5679 5677 5674 5670 5668 5665 5662 5659 5656 5652 5648 5644 5640 5636 5632 5628 5624 5620 5617 5612
5690 5685 5680 5686 5686 5686 5686 5685 5685 5685 5685 5684 5684 5683 5683 5682 5681 5680 5679 5678 5678 5677 5675 5672 5668 5667 5665 5662 5659 5656 5654 5650 5646 5643 5638 5634 5630 5627 5623 5619 5615 5611 5607 5603
5671 5670 5677 5681 5676 5676 5676 5676 5676 5676 5676 5675 5676 5674 5673 5673 5671 5670 5670 5668 5667 5666 5664 5661 5658 5656 5653 5650 5650 5647 5644 5639 5635 5631 5627 5623 5619 5616 5612 5608 5605 5600 5596 5592
5658 5661 5667 5669 5667 5667 5668 5667 5666 5667 5666 5665 5663 5663 5662 5662 5660 5659 5658 5657 5655 5653 5651 5650 5648 5644 5641 5640 5638 5635 5632 5627 5624 5620 5616 5613 5609 5605 5602 5597 5594 5589 5584 5581
5651 5650 5657 5653 5656 5654 5653 5654 5654 5654 5654 5654 5653 5652 5651 5650 5648 5648 5646 5645 5644 5642 5640 5639 5636 5632 5631 5628 5625 5622 5618 5615 5611 5607 5603 5599 5595 5591 5588 5585 5580 5576 5572 5569
5644 5639 5640 5642 5643 5642 5639 5640 5641 5642 5639 5639 5638 5638 5636 5636 5635 5635 5634 5632 5630 5629 5628 5627 5625 5622 5619 5615 5612 5608 5605 5601 5597 5594 5590 5585 5581 5577 5574 5571 5568 5563 5558 5554
5632 5631 5626 5627 5628 5629 5628 5626 5626 5627 5624 5624 5625 5624 5623 5622 5621 5620 5619 5617 5616 5614 5613 5610 5608 5606 5604 5602 5599 5595 5592 5588 5585 5582 5577 5571 5566 5563 5561 5558 5555 5549 5544 5540
5614 5615 5613 5612 5611 5612 5613 5613 5613 5613 5612 5610 5609 5609 5609 5607 5606 5605 5604 5603 5601 5599 5597 5595 5593 5592 5590 5587 5584 5581 5577 5574 5570 5567 5563 5559 5555 5552 5548 5546 5542 5538 5532 5527
5593 5594 5596 5597 5598 5596 5596 5596 5598 5598 5598 5597 5597 5595 5594 5593 5592 5590 5588 5587 5586 5584 5582 5580 5579 5577 5574 5572 5569 5566 5563 5560 5556 5553 5549 5546 5543 5540 5537 5534 5530 5525 5521 5515
5573 5573 5574 5577 5578 5579 5579 5579 5580 5580 5580 5581 5581 5580 5579 5578 5576 5575 5574 5572 5571 5569 5567 5565 5564 5562 5560 5557 5555 5552 5549 5546 5542 5538 5535 5532 5529 5526 5523 5520 5517 5513 5508 5503
5553 5553 5553 5554 5558 5560 5560 5559 5560 5561 5562 5562 5563 5563 5563 5561 5559 5558 5557 5557 5555 5554 5552 5551 5549 5547 5544 5541 5538 5536 5533 5531 5528 5524 5521 5518 5515 5511 5508 5506 5503 5499 5494 5490
5536 5537 5537 5537 5537 5539 5542 5542 5543 5542 5542 5543 5544 5544 5544 5544 5543 5542 5540 5539 5539 5537 5536 5534 5532 5531 5528 5525 5522 5519 5516 5512 5510 5506 5504 5501 5500 5497 5495 5491 5487 5483 5478 5474
5519 5520 5521 5521 5521 5522 5523 5525 5525 5525 5526 5526 5526 5526 5527 5526 5526 5526 5524 5522 5521 5520 5518 5517 5515 5513 5512 5509 5506 5504 5501 5497 5494 5491 5488 5484 5483 5480 5478 5475 5472 5468 5464 5459
5506 5507 5507 5508 5509 5508 5508 5508 5508 5509 5510 5511 5510 5510 5510 5509 5508 5507 5506 5504 5503 5501 5500 5499 5497 5495 5494 5492 5490 5487 5485 5482 5478 5474 5471 5469 5465 5464 5461 5458 5455 5452 5447 5443
5495 5495 5496 5496 5496 5495 5495 5495 5494 5495 5496 5495 5495 5494 5493 5492 5492 5489 5488 5488 5485 5484 5483 5480 5479 5479 5476 5474 5472 5469 5466 5464 5461 5457 5454 5451 5449 5448 5445 5441 5438 5435 5433 5430
5482 5483 5483 5482 5482 5482 5481 5480 5481 5481 5480 5480 5479 5478 5476 5474 5474 5476 5472 5470 5468 5466 5466 5463 5461 5460 5458 5456 5454 5451 5447 5445 5443 5440 5437 5434 5433 5432 5429 5426 5422 5420 5418 5414
5467 5467 5466 5465 5466 5465 5464 5464 5464 5465 5463 5464 5465 5463 5461 5458 5457 5457 5456 5454 5453 5448 5448 5446 5444 5442 5440 5439 5436 5434 5430 5428 5426 5422 5420 5419 5417 5414 5412 5409 5407 5405 5402 5401
5450 5449 5450 5451 5450 5447 5447 5448 5449 5450 5449 5449 5450 5449 5447 5445 5443 5442 5440 5438 5435 5433 5430 5428 5427 5425 5423 5421 5418 5417 5414 5412 5409 5406 5404 5402 5400 5398 5396 5395 5393 5390 5390 5386